Погода в Бафусаме

Камерун     5°28′41″N   10°25′33″E
темп.,
°C
ветер,
м/с
пор.,
м/с
влажн.,
%
обл.,
%
осадки,
мм/ч
давл.,
гПа
погр.,
м
18 мая, ср
ср1801:00+17з0195100 0.2 101311
04:00+17зюз1196100 0.1 101312
07:00+18з119486 0.1 101458
10:00+23вюв127877 1.2 1014564
13:00+25вюв126853 3.7 10111147
16:00+24вюв127599 3.4 1010755
19:00+19юз219369 8.1 101222
22:00+18зюз1295100 1.0 101444
19 мая, чт
чт1901:00+18зсз1195100 1.3 101421
04:00+18сз1197100 0.1 101311
07:00+18зсз009798 0.4 101551
10:00+19юв0197100 0.6 1017102
13:00+20сз1190100 0.9 1014269
16:00+21з1189100 1.5 1012136
19:00+19юв1198100 5.6 101434
22:00+18з1199100 5.8 101525
20 мая, пт
пт2001:00+18зсз1198100 6.2 101519
04:00+18зсз1196100 0.0 101415
07:00+18з1194100 0.0 101617
10:00+22в0181100 0.1 1017375
13:00+24вюв237379 1.8 1014961
16:00+22вюв1188100 4.2 1012114
19:00+19сз2598100 7.8 1014182
22:00+17зсз1196100 0.4 101618
21 мая, сб
сб2101:00+18зсз1193100 0.4 101517
04:00+18зюз1194100 0.8 101513
07:00+18юз1193100 0.8 101611
10:00+21юв128788 0.3 1017312
13:00+20ююв119265 1.7 101592
16:00+24вюв127146 0.9 1012731
19:00+19ю229438 2.1 101425
22:00+17з119312 0.0 101612
22 мая, вс
вс2201:00+17з1194100 0.0 101518
04:00+16з1195100 0.6 101515
07:00+18зсз119398 0.6 101644
10:00+24всв126725 0.1 1015648
13:00+26в245893 0.8 10121500
16:00+25юв2368100 1.2 1010903
19:00+19юз2192100 3.3 101320
22:00+18з1194100 0.9 101518